Location: Beadle
(51.4667°N, 109.0000°W)
Time: 05:14:36
(UTC+00:00)

Altair - Pass Details

Date: 03 June 2022
Orbit: 1501 x 1682 km, 47.2° (Epoch: 30 June)

Event Time Altitude Azimuth Distance (km) Brightness Sun altitude
Rises 19:20:38 0° 182° (S) 4,744 10.5 60.9°
Reaches altitude 10° 19:25:01 10° 165° (SSE) 3,798 10.2 60.8°
Maximum altitude 19:30:47 18° 127° (SE) 3,265 9.7 60.7°
Drops below altitude 10° 19:36:41 10° 90° (E) 3,892 9.7 60.6°
Sets 19:41:13 0° 73° (ENE) 4,908 10.0 60.5°
